[[{"header":{"parameterUnit":"m.s-1","parameterCategory":1,"la1":30.2992,"la2":30.254,"lo1":-89.0895,"lo2":-89.0443,"dy":0.0025,"dx":0.0025,"nx":19,"ny":19,"refTime":"2026-03-09T09:00:00:Z","depth":0,"parameterNumber":2,"parameterNumberName":"U-component_of_WINDS"},"data":[0,0,0,-1.9875,-1.9877,-1.9974,-1.9974,-2.0085,-2.0085,0,0,0,0,0,0,0,0,0,0,0,-1.9839,-1.984,-1.9875,-1.9877,-1.9974,-1.9974,-2.0084,-2.0085,0,0,0,0,0,0,0,0,0,0,0,-1.9839,-1.984,-1.984,-1.9877,-1.9973,-1.9974,-2.0084,-2.0016,0,0,0,0,0,0,0,0,0,0,-1.9924,-1.9884,-1.9839,-1.984,-1.9878,-1.9973,-1.9974,-2.0013,-2.002,-2.0035,0,-2.0048,0,-2.0068,-2.0092,-2.0092,0,0,0,-1.9882,-1.9878,-1.9911,-1.984,-1.9879,-1.9973,-1.9931,-2.0017,-2.0025,-2.0045,-2.005,-2.0054,-2.007,-2.0093,-2.0093,-2.0167,-2.0167,0,0,-1.9877,-1.9853,-1.9905,-1.9916,-1.9901,-1.9928,-1.9934,-2.0022,-2.0025,-2.005,-2.0057,-2.0072,-2.0093,-2.0094,-2.0167,-2.0167,0,0,0,-1.9858,-1.9848,-1.9879,-1.9911,-1.9929,-1.9931,-1.9938,-2.0021,-2.0033,-2.0058,-2.0073,-2.0094,-2.0095,-2.0167,-2.0167,-2.0149,0,0,0,-1.9855,-1.9838,-1.9877,-1.9863,-1.9927,-1.9977,-1.9935,-2.0027,-2.0038,-2.0073,-2.0094,-2.0096,-2.0167,-2.0167,-2.0149,-2.0144,0,0,0,-1.9835,-1.9835,-1.9847,-1.9861,-1.9902,-1.9976,-1.9993,-2.003,-2.0047,-2.0092,-2.0096,-2.0167,-2.0167,-2.0149,-2.0145,-2.0156,0,0,0,-1.9807,-1.9829,-1.9846,-1.9877,-1.9901,-1.9964,-1.9993,-2.0041,-2.0078,-2.0094,-2.0167,-2.0167,-2.0149,-2.0145,-2.0156,-2.0161,-2.0161,0,0,-1.9822,-1.983,-1.985,-1.9868,-1.9922,-1.9951,-2.0003,-2.0059,-2.0085,-2.0138,-2.014,-2.0149,-2.0145,-2.0156,-2.017,-2.017,0,0,0,-1.9847,-1.9861,-1.988,-1.9915,-1.9959,-1.9996,-2.0047,-2.0068,-2.0114,-2.0107,-2.0157,-2.0155,-2.0163,-2.0167,-2.0167,-2.0175,-2.0168,-2.0168,-2.0168,-1.9832,-1.9865,-1.99,-1.9945,-1.9977,-2.003,-2.006,-2.0097,-2.012,-2.0131,-2.0147,-2.0151,-2.0154,-2.0155,-2.0162,-2.0152,-2.0152,-2.0152,-2.0152,-1.9856,-1.9881,-1.9912,-1.9957,-1.9991,-2.0029,-2.008,-2.0095,-2.0135,-2.0142,-2.0151,-2.0155,-2.0153,-2.0162,-2.0151,-2.0151,-2.0151,-2.0152,-2.0152,-1.985,-1.9868,-1.9893,-1.9946,-1.9983,-2.0027,-2.0064,-2.0094,-2.0122,-2.0131,-2.015,-2.0151,-2.0154,-2.0138,-2.0138,-2.0138,-2.0138,-2.0138,-2.0138,-1.9833,-1.9863,-1.9891,-1.9939,-1.9965,-2.0003,-2.0056,-2.0082,-2.0119,-2.0137,-2.0138,-2.0159,-2.0147,-2.0143,-2.0139,-2.0138,-2.0138,-2.0138,-2.0138,-1.9845,-1.9847,-1.989,-1.9916,-1.9975,-2.0009,-2.0048,-2.0098,-2.0124,-2.0141,-2.0161,-2.0148,-2.0158,-2.0159,-2.0156,-2.0154,-2.0154,-2.0154,-2.0154,-1.9839,-1.9848,-1.9898,-1.9938,-1.998,-2.0018,-2.0065,-2.0106,-2.0149,-2.0167,-2.0172,-2.0171,-2.017,-2.0181,-2.0181,-2.0178,-2.0183,-2.0183,-2.0183,-1.9848,-1.9862,-1.9896,-1.9939,-1.9987,-2.0028,-2.0073,-2.0116,-2.0166,-2.0185,-2.0182,-2.0181,-2.0179,-2.0177,-2.0195,-2.0194,-2.019,0,0]},{"header":{"parameterUnit":"m.s-1","parameterCategory":1,"la1":30.2992,"la2":30.254,"lo1":-89.0895,"lo2":-89.0443,"dy":0.0025,"dx":0.0025,"nx":19,"ny":19,"refTime":"2026-03-09T09:00:00:Z","depth":0,"parameterNumber":3,"parameterNumberName":"V-component_of_WINDS"},"data":[0,0,0,4.3869,4.3872,4.4018,4.4018,4.42,4.4202,0,0,0,0,0,0,0,0,0,0,0,4.3825,4.3826,4.3869,4.3872,4.4018,4.4018,4.42,4.4202,0,0,0,0,0,0,0,0,0,0,0,4.3824,4.3826,4.3827,4.3873,4.4017,4.4018,4.42,4.4091,0,0,0,0,0,0,0,0,0,0,4.395,4.3909,4.3825,4.3827,4.3874,4.4017,4.4018,4.4086,4.4098,4.4133,0,4.4166,0,4.4187,4.4214,4.4215,0,0,0,4.3872,4.3899,4.3939,4.3827,4.3875,4.4017,4.3952,4.4092,4.4106,4.4149,4.4168,4.4175,4.419,4.4215,4.4216,4.4425,4.4426,0,0,4.3864,4.385,4.393,4.3948,4.3927,4.3947,4.3957,4.4101,4.412,4.4169,4.4179,4.4193,4.4216,4.4218,4.4424,4.4425,0,0,0,4.3841,4.3844,4.3881,4.394,4.3967,4.3952,4.3962,4.4114,4.4127,4.4181,4.4195,4.4217,4.422,4.4423,4.4425,4.4461,0,0,0,4.3836,4.3831,4.3878,4.387,4.3964,4.4042,4.3972,4.4117,4.4134,4.4194,4.4217,4.4221,4.4422,4.4424,4.4457,4.448,0,0,0,4.3816,4.3828,4.3849,4.3869,4.3931,4.404,4.4062,4.4121,4.4142,4.4215,4.4222,4.4421,4.4424,4.4455,4.4475,4.4533,0,0,0,4.3788,4.3877,4.3849,4.3953,4.393,4.4062,4.4061,4.4159,4.4226,4.4218,4.4422,4.4424,4.4454,4.4473,4.453,4.458,4.46,0,0,4.3892,4.3889,4.3951,4.3931,4.4064,4.4041,4.4179,4.4252,4.427,4.4372,4.4377,4.4459,4.4475,4.4532,4.4709,4.4725,0,0,0,4.3979,4.4024,4.4062,4.4126,4.4185,4.4239,4.4293,4.432,4.4408,4.432,4.4494,4.4504,4.4539,4.4564,4.4577,4.4608,4.4435,4.4435,4.4434,4.4104,4.4126,4.4231,4.4271,4.4332,4.4388,4.444,4.4487,4.4488,4.4529,4.456,4.4665,4.4693,4.4703,4.4735,4.4586,4.4586,4.4586,4.4587,4.4259,4.4327,4.4329,4.4433,4.4454,4.454,4.4598,4.4596,4.4679,4.4642,4.4673,4.4633,4.4719,4.4749,4.4589,4.4589,4.4589,4.4588,4.4588,4.4345,4.4382,4.4415,4.4512,4.4583,4.4619,4.47,4.4715,4.473,4.4761,4.4797,4.4797,4.48,4.4777,4.4777,4.4778,4.4778,4.4778,4.4778,4.4423,4.4459,4.4527,4.4599,4.4643,4.4703,4.4761,4.4804,4.4857,4.4862,4.4862,4.4861,4.4723,4.4689,4.4784,4.4783,4.4782,4.4782,4.4782,4.4576,4.4544,4.4648,4.4693,4.478,4.4851,4.487,4.4958,4.4996,4.5035,4.5028,4.4923,4.492,4.491,4.4882,4.5021,4.5021,4.5021,4.5021,4.465,4.4651,4.4763,4.4833,4.4904,4.4933,4.505,4.5096,4.5137,4.5162,4.5144,4.5108,4.5097,4.5101,4.5087,4.5061,4.5243,4.5243,4.5243,4.4747,4.4755,4.4853,4.4895,4.4965,4.5024,4.5135,4.5216,4.5256,4.5253,4.5183,4.5173,4.5115,4.5095,4.5092,4.5069,4.5023,0,0]}]]